[[{"header":{"parameterUnit":"m.s-1","parameterCategory":1,"la1":30.2991,"la2":30.254,"lo1":-89.0895,"lo2":-89.0444,"dy":0.0017,"dx":0.0017,"nx":28,"ny":28,"refTime":"2024-10-14T21:00:00:Z","depth":0,"parameterNumber":2,"parameterNumberName":"U-component_of_WINDS"},"data":[0,0,0,0,0,0,0,0,0,0,0,0,0,0,0,0,0,0,0,0,0,0,0,0,0,0,0,0,0,0,0,0,0,0,0,0,0,0,0,0,0,0,0,0,0,0,0,0,0,0,0,0,0,0,0,0,0,0,-2.7183,-2.7184,0,-2.7274,-2.7275,-2.7276,-2.7286,-2.7285,-2.7284,-2.7283,-2.7373,-2.7376,-2.7379,0,0,0,0,0,0,0,0,0,0,0,0,0,-2.7015,-2.7018,-2.7183,-2.7184,-2.7185,-2.7274,-2.7275,-2.7277,-2.7286,-2.7285,-2.7284,-2.7283,-2.7372,-2.7376,-2.738,0,0,0,0,0,0,0,0,0,0,0,0,0,-2.7095,-2.7019,-2.7183,-2.7201,-2.7204,-2.7274,-2.7275,-2.7277,-2.7286,-2.7285,-2.7284,-2.7282,-2.7371,-2.7375,-2.738,-2.7438,0,0,-2.7395,-2.7397,0,0,0,0,0,0,0,0,-2.7091,-2.7101,-2.7197,-2.72,-2.7203,-2.7267,-2.7249,-2.7331,-2.7287,-2.7255,-2.7283,-2.7282,-2.7339,-2.7346,-2.7366,-2.7442,-2.7446,-2.7395,-2.7398,-2.7401,-2.7402,0,0,0,0,0,0,0,-2.7085,-2.7097,-2.7219,-2.7199,-2.7202,-2.7204,-2.7214,-2.7264,-2.7303,-2.7257,-2.7258,-2.7269,-2.734,-2.7361,-2.7368,-2.7447,-2.7395,-2.74,-2.7403,-2.7405,-2.7575,-2.7576,0,0,0,0,0,0,-2.7077,-2.7093,-2.7216,-2.7222,-2.7142,-2.7208,-2.7219,-2.7248,-2.7303,-2.731,-2.727,-2.7269,-2.7354,-2.7363,-2.7371,-2.7442,-2.74,-2.7405,-2.7408,-2.7573,-2.7575,-2.7577,0,0,0,0,0,0,-2.7073,-2.7087,-2.7212,-2.7158,-2.7174,-2.7212,-2.7245,-2.725,-2.7272,-2.7313,-2.7319,-2.7285,-2.7353,-2.7365,-2.7421,-2.7445,-2.7407,-2.7412,-2.7571,-2.7574,-2.7576,-2.7582,0,0,0,0,0,0,-2.7068,-2.7086,-2.7109,-2.7158,-2.7177,-2.7261,-2.7246,-2.7253,-2.7281,-2.728,-2.7328,-2.7335,-2.7353,-2.7414,-2.7426,-2.7451,-2.7415,-2.7569,-2.7572,-2.7575,-2.758,-2.7585,-2.7589,0,0,0,0,0,-2.7062,-2.7106,-2.711,-2.7125,-2.7206,-2.7263,-2.7273,-2.7294,-2.7283,-2.7305,-2.7331,-2.7333,-2.7441,-2.742,-2.7434,-2.746,-2.7568,-2.7571,-2.7575,-2.7578,-2.7584,-2.7589,0,0,0,0,0,0,-2.7057,-2.7113,-2.7117,-2.7179,-2.7216,-2.7264,-2.7293,-2.7299,-2.7339,-2.7337,-2.7361,-2.7371,-2.7427,-2.745,-2.7425,-2.7519,-2.7503,-2.751,-2.7501,-2.7507,-2.7511,-2.7503,-2.742,0,0,0,0,0,-2.7063,-2.7106,-2.7152,-2.7202,-2.7221,-2.7254,-2.7279,-2.7293,-2.7332,-2.7347,-2.7377,-2.7414,-2.7456,-2.7483,-2.7524,-2.7585,-2.7595,-2.761,-2.7614,-2.7617,-2.7622,-2.7655,-2.7662,-2.7588,-2.7588,-2.7588,0,0,-2.7076,-2.7112,-2.7137,-2.7202,-2.7232,-2.7275,-2.7267,-2.7312,-2.7343,-2.7353,-2.7408,-2.7433,-2.7475,-2.7534,-2.7561,-2.7554,-2.7645,-2.7622,-2.7624,-2.7627,-2.7659,-2.7666,-2.7672,-2.7591,-2.759,-2.759,0,0,-2.712,-2.7153,-2.7197,-2.7229,-2.7275,-2.7298,-2.7308,-2.7356,-2.7373,-2.7429,-2.7438,-2.7475,-2.7548,-2.7578,-2.7602,-2.7661,-2.7663,-2.7674,-2.7694,-2.7726,-2.7732,-2.7737,-2.7756,-2.7763,-2.7679,-2.7679,-2.7679,0,-2.7129,-2.7194,-2.7219,-2.7265,-2.7292,-2.7306,-2.7351,-2.738,-2.7437,-2.7455,-2.7448,-2.7539,-2.7569,-2.7635,-2.7649,-2.7669,-2.7681,-2.7666,-2.7729,-2.7735,-2.774,-2.7758,-2.7766,-2.7679,-2.7679,-2.7679,-2.7679,0,-2.7203,-2.7248,-2.7279,-2.7335,-2.7367,-2.7412,-2.7443,-2.7472,-2.7483,-2.7506,-2.7563,-2.76,-2.7649,-2.7666,-2.7677,-2.7733,-2.7728,-2.7725,-2.7709,-2.7747,-2.7765,-2.7772,-2.768,-2.768,-2.768,-2.768,0,0,-2.7243,-2.7315,-2.7325,-2.7351,-2.7405,-2.7439,-2.7485,-2.7534,-2.7558,-2.7598,-2.7636,-2.7698,-2.7696,-2.7724,-2.7739,-2.7768,-2.781,-2.7761,-2.7762,-2.7767,-2.7873,-2.7873,-2.788,-2.7814,-2.7815,-2.7816,-2.7868,0,-2.7291,-2.7374,-2.7399,-2.7467,-2.7509,-2.7524,-2.7564,-2.76,-2.7624,-2.7662,-2.7688,-2.773,-2.7725,-2.7742,-2.7771,-2.7798,-2.7831,-2.7795,-2.7847,-2.7848,-2.7833,-2.789,-2.789,-2.7937,-2.7876,-2.7877,-2.7878,0,-2.7358,-2.7401,-2.7474,-2.7523,-2.7542,-2.7577,-2.7624,-2.7661,-2.7704,-2.7719,-2.7751,-2.7764,-2.7812,-2.7796,-2.7861,-2.7837,-2.786,-2.7877,-2.7879,-2.7882,-2.7863,-2.7892,-2.7953,-2.7959,-2.7889,-2.7888,-2.7887,0,-2.7378,-2.7454,-2.7507,-2.7529,-2.7588,-2.7613,-2.7638,-2.768,-2.7708,-2.7749,-2.7767,-2.7814,-2.7838,-2.7873,-2.7898,-2.7885,-2.7961,-2.7948,-2.7973,-2.7972,-2.7985,-2.7984,-2.8048,-2.8005,-2.8005,-2.8005,-2.8005,0,-2.7428,-2.7471,-2.7517,-2.7549,-2.7599,-2.7627,-2.7675,-2.7701,-2.7738,-2.7776,-2.7792,-2.7826,-2.7858,-2.7897,-2.7917,-2.7967,-2.7979,-2.7991,-2.7995,-2.7988,-2.7986,-2.8001,-2.7998,-2.8007,-2.8006,-2.8006,-2.8006,0,-2.7456,-2.7488,-2.7547,-2.76,-2.7614,-2.7648,-2.7692,-2.7724,-2.7749,-2.7796,-2.7809,-2.7848,-2.7895,-2.7924,-2.7983,-2.7996,-2.8051,-2.8055,-2.8036,-2.8038,-2.8061,-2.8057,-2.8135,-2.8146,-2.8098,-2.8098,-2.8098,0,-2.7484,-2.7518,-2.7575,-2.7602,-2.7628,-2.7671,-2.7701,-2.7731,-2.776,-2.7812,-2.7838,-2.7886,-2.7925,-2.7999,-2.8032,-2.8077,-2.8081,-2.8106,-2.8088,-2.8079,-2.8079,-2.8076,-2.8078,-2.8107,-2.8107,-2.8108,-2.8108,0,-2.753,-2.7545,-2.7588,-2.7636,-2.7671,-2.771,-2.7749,-2.777,-2.7807,-2.7839,-2.7888,-2.7919,-2.798,-2.8027,-2.8076,-2.8101,-2.811,-2.8114,-2.8122,-2.8113,-2.81,-2.8106,-2.8042,-2.8111,-2.8111,-2.8111,-2.811,-2.811,-2.7558,-2.7589,-2.7634,-2.7681,-2.7714,-2.7751,-2.7783,-2.7814,-2.7855,-2.7908,-2.7923,-2.7974,-2.8016,-2.8082,-2.8109,-2.8148,-2.8145,-2.8157,-2.8159,-2.8161,-2.816,-2.8097,-2.8158,-2.8158,-2.8157,-2.8157,-2.8157,0,-2.7603,-2.7634,-2.7677,-2.7732,-2.7769,-2.7777,-2.7821,-2.7851,-2.7895,-2.7935,-2.7974,-2.803,-2.8076,-2.8114,-2.8161,-2.8185,-2.8191,-2.8197,-2.8194,-2.8199,-2.8162,-2.8149,-2.8191,-2.8191,-2.8191,-2.8191,-2.8191,-2.8191,-2.7631,-2.7684,-2.7705,-2.7774,-2.7804,-2.7854,-2.7879,-2.7912,-2.7944,-2.8006,-2.8045,-2.807,-2.8109,-2.8159,-2.8202,-2.8212,-2.8227,-2.8232,-2.8242,-2.8206,-2.8202,-2.8198,-2.8186,-2.8236,-2.8236,-2.8276,-2.8277,-2.8277]},{"header":{"parameterUnit":"m.s-1","parameterCategory":1,"la1":30.2991,"la2":30.254,"lo1":-89.0895,"lo2":-89.0444,"dy":0.0017,"dx":0.0017,"nx":28,"ny":28,"refTime":"2024-10-14T21:00:00:Z","depth":0,"parameterNumber":3,"parameterNumberName":"V-component_of_WINDS"},"data":[0,0,0,0,0,0,0,0,0,0,0,0,0,0,0,0,0,0,0,0,0,0,0,0,0,0,0,0,0,0,0,0,0,0,0,0,0,0,0,0,0,0,0,0,0,0,0,0,0,0,0,0,0,0,0,0,0,0,-2.6819,-2.682,0,-2.6863,-2.6864,-2.6864,-2.6851,-2.685,-2.6849,-2.6848,-2.6889,-2.6891,-2.6893,0,0,0,0,0,0,0,0,0,0,0,0,0,-2.672,-2.6721,-2.6819,-2.682,-2.682,-2.6863,-2.6864,-2.6864,-2.6851,-2.685,-2.6849,-2.6848,-2.6888,-2.6891,-2.6893,0,0,0,0,0,0,0,0,0,0,0,0,0,-2.6763,-2.6722,-2.6819,-2.6819,-2.682,-2.6863,-2.6864,-2.6864,-2.6851,-2.685,-2.6849,-2.6847,-2.6888,-2.689,-2.6893,-2.6938,0,0,-2.6902,-2.6903,0,0,0,0,0,0,0,0,-2.6761,-2.6767,-2.6819,-2.6819,-2.682,-2.685,-2.6843,-2.6889,-2.6852,-2.6839,-2.6848,-2.6847,-2.6877,-2.6881,-2.6892,-2.694,-2.6942,-2.6902,-2.6904,-2.6905,-2.6906,0,0,0,0,0,0,0,-2.6758,-2.6765,-2.6836,-2.6819,-2.682,-2.6815,-2.682,-2.6852,-2.6865,-2.684,-2.6839,-2.6845,-2.6877,-2.6889,-2.6892,-2.6942,-2.6902,-2.6905,-2.6907,-2.6908,-2.7027,-2.7029,0,0,0,0,0,0,-2.6755,-2.6762,-2.6835,-2.6838,-2.6786,-2.6818,-2.6823,-2.6842,-2.6865,-2.6867,-2.6846,-2.6844,-2.6885,-2.6889,-2.6894,-2.6947,-2.6905,-2.6908,-2.691,-2.7026,-2.7028,-2.7029,0,0,0,0,0,0,-2.6753,-2.6761,-2.6833,-2.68,-2.6809,-2.6821,-2.6842,-2.6843,-2.6855,-2.6869,-2.6871,-2.6856,-2.6884,-2.689,-2.6927,-2.6948,-2.6909,-2.6912,-2.7024,-2.7027,-2.7029,-2.7053,0,0,0,0,0,0,-2.675,-2.6761,-2.6779,-2.68,-2.6811,-2.6867,-2.6843,-2.6845,-2.6861,-2.6859,-2.6879,-2.6881,-2.6883,-2.6923,-2.693,-2.6951,-2.6914,-2.7022,-2.7025,-2.7028,-2.705,-2.7056,-2.706,0,0,0,0,0,-2.6746,-2.6783,-2.678,-2.6789,-2.6834,-2.6868,-2.6874,-2.6877,-2.6863,-2.688,-2.6889,-2.688,-2.6945,-2.6927,-2.6935,-2.6957,-2.7021,-2.7024,-2.7028,-2.7048,-2.7055,-2.706,0,0,0,0,0,0,-2.6763,-2.6786,-2.6783,-2.6828,-2.6847,-2.6866,-2.6889,-2.6884,-2.6906,-2.6903,-2.6904,-2.6909,-2.6947,-2.6956,-2.6935,-2.7001,-2.6981,-2.6986,-2.6993,-2.7,-2.7005,-2.7001,-2.6917,0,0,0,0,0,-2.6772,-2.68,-2.6818,-2.6856,-2.6866,-2.6876,-2.6891,-2.6892,-2.691,-2.6917,-2.6929,-2.6946,-2.697,-2.6985,-2.7008,-2.7052,-2.7055,-2.7071,-2.7076,-2.708,-2.7084,-2.7106,-2.7113,-2.704,-2.704,-2.704,0,0,-2.6791,-2.6807,-2.6824,-2.686,-2.6874,-2.6901,-2.6882,-2.6912,-2.6931,-2.6921,-2.6957,-2.6966,-2.6985,-2.7026,-2.7044,-2.7034,-2.7105,-2.7084,-2.7087,-2.7089,-2.711,-2.7117,-2.7123,-2.7042,-2.7042,-2.7042,0,0,-2.6838,-2.6854,-2.6887,-2.6902,-2.6925,-2.6931,-2.6939,-2.6959,-2.6965,-2.7002,-2.6994,-2.7017,-2.7058,-2.7072,-2.7084,-2.7136,-2.7129,-2.7144,-2.7169,-2.7191,-2.7197,-2.7202,-2.7219,-2.7226,-2.7148,-2.7148,-2.7148,0,-2.6858,-2.69,-2.6904,-2.6935,-2.695,-2.6944,-2.6976,-2.699,-2.7018,-2.7028,-2.7017,-2.7068,-2.7081,-2.7124,-2.7136,-2.7147,-2.7155,-2.7141,-2.7196,-2.7201,-2.7206,-2.7222,-2.7229,-2.7149,-2.7149,-2.7149,-2.7149,0,-2.6923,-2.6952,-2.6976,-2.7004,-2.7022,-2.7053,-2.7061,-2.7078,-2.7077,-2.7084,-2.712,-2.7135,-2.716,-2.7171,-2.717,-2.7213,-2.7206,-2.7196,-2.7175,-2.7214,-2.723,-2.7236,-2.7152,-2.7151,-2.7151,-2.715,0,0,-2.6982,-2.7013,-2.7021,-2.7033,-2.7058,-2.7079,-2.7109,-2.7135,-2.7149,-2.7169,-2.7193,-2.7228,-2.7219,-2.7232,-2.7233,-2.7252,-2.7291,-2.7239,-2.724,-2.7247,-2.7338,-2.7345,-2.7352,-2.7287,-2.7288,-2.7289,-2.7336,0,-2.7031,-2.7085,-2.709,-2.7138,-2.7164,-2.7158,-2.7184,-2.7201,-2.7208,-2.7229,-2.7237,-2.7261,-2.7247,-2.7256,-2.7275,-2.7282,-2.7309,-2.7279,-2.7307,-2.7308,-2.7302,-2.736,-2.7368,-2.7411,-2.7342,-2.7343,-2.7344,0,-2.7095,-2.7117,-2.7169,-2.7189,-2.7199,-2.7223,-2.7246,-2.7268,-2.7286,-2.729,-2.7305,-2.7303,-2.7332,-2.7311,-2.7351,-2.733,-2.7342,-2.7347,-2.7349,-2.7351,-2.7328,-2.7362,-2.7426,-2.7432,-2.7354,-2.7353,-2.7352,0,-2.7131,-2.7174,-2.721,-2.7221,-2.7245,-2.7262,-2.7272,-2.7289,-2.7304,-2.7324,-2.7334,-2.7357,-2.7369,-2.7386,-2.7389,-2.7374,-2.7427,-2.7408,-2.743,-2.743,-2.744,-2.7439,-2.7505,-2.745,-2.745,-2.745,-2.745,0,-2.7184,-2.7216,-2.7227,-2.7249,-2.7283,-2.7287,-2.732,-2.733,-2.7345,-2.7367,-2.7363,-2.7384,-2.7388,-2.7409,-2.7411,-2.7442,-2.7448,-2.7451,-2.7451,-2.745,-2.745,-2.7457,-2.7454,-2.7452,-2.7451,-2.7451,-2.7451,0,-2.723,-2.7239,-2.7278,-2.7298,-2.7303,-2.7328,-2.7344,-2.7364,-2.7371,-2.7399,-2.7406,-2.7416,-2.7441,-2.7446,-2.7475,-2.7476,-2.7513,-2.7511,-2.7507,-2.7506,-2.7528,-2.7525,-2.76,-2.7609,-2.7549,-2.755,-2.755,0,-2.7263,-2.7287,-2.731,-2.7325,-2.7337,-2.7362,-2.7377,-2.7382,-2.7398,-2.742,-2.7437,-2.7462,-2.7481,-2.7521,-2.7529,-2.7551,-2.7548,-2.7573,-2.7551,-2.755,-2.7547,-2.7545,-2.7547,-2.7576,-2.7577,-2.7578,-2.7578,0,-2.732,-2.7323,-2.7346,-2.7371,-2.739,-2.7409,-2.7428,-2.744,-2.7447,-2.7465,-2.7491,-2.7506,-2.7536,-2.7559,-2.7581,-2.759,-2.7585,-2.7585,-2.7591,-2.759,-2.7587,-2.7588,-2.7517,-2.7583,-2.7582,-2.7582,-2.7582,-2.7582,-2.7359,-2.738,-2.7399,-2.7425,-2.7439,-2.7457,-2.7476,-2.7486,-2.7508,-2.7533,-2.7535,-2.7562,-2.7578,-2.7607,-2.7618,-2.7638,-2.763,-2.7639,-2.7641,-2.7643,-2.7645,-2.7585,-2.7642,-2.7642,-2.7642,-2.7642,-2.7642,0,-2.7415,-2.7427,-2.7451,-2.7477,-2.7497,-2.7492,-2.7512,-2.7528,-2.7553,-2.7569,-2.7589,-2.7618,-2.7641,-2.7651,-2.7674,-2.7688,-2.7686,-2.7693,-2.7692,-2.7693,-2.7651,-2.7643,-2.7695,-2.7695,-2.7695,-2.7694,-2.7694,-2.7694,-2.7446,-2.748,-2.7486,-2.7527,-2.7538,-2.7566,-2.7578,-2.7593,-2.7606,-2.7639,-2.7658,-2.7666,-2.7679,-2.7702,-2.7722,-2.7725,-2.7732,-2.7741,-2.7742,-2.7702,-2.7697,-2.7691,-2.7684,-2.7743,-2.7743,-2.7783,-2.7783,-2.7783]}]]